Time,TemperatureF,DewpointF,PressureIn,WindDirection,WindDirectionDegrees,WindSpeedMPH,WindSpeedGustMPH,Humidity,HourlyPrecipIn,Conditions,Clouds,dailyrainin,SolarRadiationWatts/m^2,SoftwareType,DateUTC
2013-03-25 00:08:00,28.9,21.0,29.78,NNW,332,3.0,-999.0,72,-99.99,,,0.00,0,weatherlink.com 1.10,2013-03-25 04:08:00,
2013-03-25 00:24:00,28.7,21.0,29.79,NNW,331,2.0,-999.0,73,-99.99,,,0.00,0,weatherlink.com 1.10,2013-03-25 04:24:00,
2013-03-25 00:38:00,28.6,21.0,29.78,NNE,19,1.0,-999.0,74,-99.99,,,0.00,0,weatherlink.com 1.10,2013-03-25 04:38:00,
2013-03-25 00:53:00,28.5,21.0,29.78,NE,36,6.0,-999.0,74,-99.99,,,0.00,0,weatherlink.com 1.10,2013-03-25 04:53:00,
2013-03-25 01:08:00,28.4,21.0,29.77,NNE,30,2.0,-999.0,74,-99.99,,,0.00,0,weatherlink.com 1.10,2013-03-25 05:08:00,
2013-03-25 01:23:00,28.3,21.0,29.77,NE,50,2.0,-999.0,74,-99.99,,,0.00,0,weatherlink.com 1.10,2013-03-25 05:23:00,
2013-03-25 01:38:00,28.1,21.0,29.76,NNE,26,3.0,-999.0,75,-99.99,,,0.00,0,weatherlink.com 1.10,2013-03-25 05:38:00,
2013-03-25 01:53:00,28.0,21.0,29.76,ENE,74,2.0,-999.0,75,-99.99,,,0.00,0,weatherlink.com 1.10,2013-03-25 05:53:00,
2013-03-25 02:08:00,27.8,21.0,29.75,NE,45,10.0,-999.0,76,-99.99,,,0.00,0,weatherlink.com 1.10,2013-03-25 06:08:00,
2013-03-25 02:23:00,27.6,21.0,29.75,North,5,3.0,-999.0,76,-99.99,,,0.00,0,weatherlink.com 1.10,2013-03-25 06:23:00,
2013-03-25 02:38:00,27.3,21.0,29.75,NE,40,4.0,-999.0,77,-99.99,,,0.00,0,weatherlink.com 1.10,2013-03-25 06:38:00,
2013-03-25 02:54:00,27.0,21.0,29.74,ENE,59,5.0,-999.0,78,-99.99,,,0.00,0,weatherlink.com 1.10,2013-03-25 06:54:00,
2013-03-25 03:08:00,26.7,21.0,29.73,North,5,4.0,-999.0,78,-99.99,,,0.00,0,weatherlink.com 1.10,2013-03-25 07:08:00,
2013-03-25 03:23:00,26.6,23.0,29.73,NNW,330,6.0,-999.0,85,-99.99,,,0.00,0,weatherlink.com 1.10,2013-03-25 07:23:00,
2013-03-25 03:38:00,26.5,21.0,29.72,NNW,346,6.0,-999.0,78,-99.99,,,0.00,0,weatherlink.com 1.10,2013-03-25 07:38:00,
2013-03-25 03:53:00,26.4,21.0,29.71,NE,38,4.0,-999.0,79,-99.99,,,0.00,0,weatherlink.com 1.10,2013-03-25 07:53:00,
2013-03-25 04:08:00,26.4,21.0,29.71,NNE,15,4.0,-999.0,79,-99.99,,,0.00,0,weatherlink.com 1.10,2013-03-25 08:08:00,
2013-03-25 04:23:00,26.4,21.0,29.70,North,10,4.0,-999.0,79,-99.99,,,0.00,0,weatherlink.com 1.10,2013-03-25 08:23:00,
2013-03-25 04:38:00,26.4,20.0,29.70,North,355,5.0,-999.0,78,-99.99,,,0.00,0,weatherlink.com 1.10,2013-03-25 08:38:00,
2013-03-25 04:54:00,26.2,21.0,29.70,NE,38,2.0,-999.0,79,-99.99,,,0.00,0,weatherlink.com 1.10,2013-03-25 08:54:00,
2013-03-25 05:08:00,26.1,20.0,29.70,NNE,15,6.0,-999.0,79,-99.99,,,0.00,0,weatherlink.com 1.10,2013-03-25 09:08:00,
2013-03-25 05:23:00,26.0,20.0,29.70,NE,51,3.0,-999.0,79,-99.99,,,0.00,0,weatherlink.com 1.10,2013-03-25 09:23:00,
2013-03-25 05:38:00,26.0,20.0,29.70,NE,56,2.0,-999.0,79,-99.99,,,0.00,0,weatherlink.com 1.10,2013-03-25 09:38:00,
2013-03-25 05:53:00,25.9,20.0,29.71,NE,52,5.0,-999.0,79,-99.99,,,0.00,0,weatherlink.com 1.10,2013-03-25 09:53:00,
2013-03-25 06:08:00,25.9,20.0,29.71,NNE,30,3.0,-999.0,79,-99.99,,,0.00,0,weatherlink.com 1.10,2013-03-25 10:08:00,
2013-03-25 06:23:00,25.7,20.0,29.71,NNE,29,3.0,-999.0,79,-99.99,,,0.00,0,weatherlink.com 1.10,2013-03-25 10:23:00,
2013-03-25 06:38:00,25.7,20.0,29.71,NE,52,2.0,-999.0,79,-99.99,,,0.00,0,weatherlink.com 1.10,2013-03-25 10:38:00,
2013-03-25 06:53:00,25.7,20.0,29.72,ENE,63,3.0,-999.0,79,-99.99,,,0.00,0,weatherlink.com 1.10,2013-03-25 10:53:00,
2013-03-25 07:08:00,25.7,20.0,29.72,NE,34,3.0,-999.0,79,-99.99,,,0.00,12,weatherlink.com 1.10,2013-03-25 11:08:00,
2013-03-25 07:23:00,25.6,20.0,29.72,ENE,61,5.0,-999.0,79,-99.99,,,0.00,30,weatherlink.com 1.10,2013-03-25 11:23:00,
2013-03-25 07:38:00,25.7,20.0,29.72,NE,38,3.0,-999.0,79,-99.99,,,0.00,54,weatherlink.com 1.10,2013-03-25 11:38:00,
2013-03-25 07:53:00,25.8,20.0,29.72,NE,48,2.0,-999.0,79,-99.99,,,0.00,77,weatherlink.com 1.10,2013-03-25 11:53:00,
2013-03-25 08:08:00,25.9,20.0,29.72,East,88,2.0,-999.0,78,-99.99,,,0.00,109,weatherlink.com 1.10,2013-03-25 12:08:00,
2013-03-25 08:38:00,26.3,20.0,29.71,NE,39,2.0,-999.0,78,-99.99,,,0.00,163,weatherlink.com 1.10,2013-03-25 12:38:00,
2013-03-25 08:53:00,26.6,21.0,29.71,NNE,28,2.0,-999.0,78,-99.99,,,0.00,169,weatherlink.com 1.10,2013-03-25 12:53:00,
2013-03-25 09:08:00,27.0,21.0,29.71,ENE,67,3.0,-999.0,77,-99.99,,,0.00,193,weatherlink.com 1.10,2013-03-25 13:08:00,
2013-03-25 09:23:00,27.5,21.0,29.71,NE,37,1.0,-999.0,76,-99.99,,,0.00,232,weatherlink.com 1.10,2013-03-25 13:23:00,
2013-03-25 09:38:00,28.5,22.0,29.70,NE,37,0.0,-999.0,76,-99.99,,,0.00,260,weatherlink.com 1.10,2013-03-25 13:38:00,
2013-03-25 09:53:00,29.4,22.0,29.69,ESE,121,1.0,-999.0,73,-99.99,,,0.00,295,weatherlink.com 1.10,2013-03-25 13:53:00,
2013-03-25 10:08:00,29.7,22.0,29.69,South,173,2.0,-999.0,72,-99.99,,,0.00,292,weatherlink.com 1.10,2013-03-25 14:08:00,
2013-03-25 10:23:00,30.3,22.0,29.69,East,79,2.0,-999.0,71,-99.99,,,0.00,334,weatherlink.com 1.10,2013-03-25 14:23:00,
2013-03-25 10:38:00,31.3,23.0,29.68,North,5,1.0,-999.0,70,-99.99,,,0.00,422,weatherlink.com 1.10,2013-03-25 14:38:00,
2013-03-25 10:53:00,32.0,22.0,29.68,ENE,71,11.0,-999.0,68,-99.99,,,0.00,473,weatherlink.com 1.10,2013-03-25 14:53:00,
2013-03-25 11:08:00,32.3,22.0,29.68,East,86,5.0,-999.0,67,-99.99,,,0.00,478,weatherlink.com 1.10,2013-03-25 15:08:00,
2013-03-25 11:23:00,33.0,23.0,29.67,ESE,105,5.0,-999.0,66,-99.99,,,0.00,517,weatherlink.com 1.10,2013-03-25 15:23:00,
2013-03-25 11:38:00,35.4,23.0,29.66,NNE,32,5.0,-999.0,62,-99.99,,,0.00,775,weatherlink.com 1.10,2013-03-25 15:38:00,
2013-03-25 11:53:00,36.4,23.0,29.65,ENE,74,4.0,-999.0,59,-99.99,,,0.00,684,weatherlink.com 1.10,2013-03-25 15:53:00,
2013-03-25 12:08:00,36.0,23.0,29.65,ENE,78,6.0,-999.0,60,-99.99,,,0.00,714,weatherlink.com 1.10,2013-03-25 16:08:00,
2013-03-25 12:23:00,36.4,23.0,29.64,ENE,67,5.0,-999.0,59,-99.99,,,0.00,777,weatherlink.com 1.10,2013-03-25 16:23:00,
2013-03-25 12:38:00,36.4,23.0,29.64,ESE,105,9.0,-999.0,59,-99.99,,,0.00,881,weatherlink.com 1.10,2013-03-25 16:38:00,
2013-03-25 12:53:00,36.9,24.0,29.63,NNE,22,3.0,-999.0,59,-99.99,,,0.00,974,weatherlink.com 1.10,2013-03-25 16:53:00,
2013-03-25 13:10:00,37.0,23.0,29.63,NE,36,5.0,-999.0,58,-99.99,,,0.00,831,weatherlink.com 1.10,2013-03-25 17:10:00,
2013-03-25 13:23:00,37.2,23.0,29.62,ENE,76,12.0,-999.0,57,-99.99,,,0.00,977,weatherlink.com 1.10,2013-03-25 17:23:00,
2013-03-25 13:38:00,38.7,24.0,29.61,ENE,77,3.0,-999.0,55,-99.99,,,0.00,510,weatherlink.com 1.10,2013-03-25 17:38:00,
2013-03-25 13:53:00,37.7,23.0,29.60,SE,139,4.0,-999.0,56,-99.99,,,0.00,441,weatherlink.com 1.10,2013-03-25 17:53:00,
2013-03-25 14:08:00,38.1,23.0,29.59,NE,35,10.0,-999.0,54,-99.99,,,0.00,490,weatherlink.com 1.10,2013-03-25 18:08:00,
2013-03-25 14:23:00,37.6,23.0,29.59,NE,36,4.0,-999.0,55,-99.99,,,0.00,357,weatherlink.com 1.10,2013-03-25 18:23:00,
2013-03-25 14:38:00,37.1,22.0,29.58,North,360,11.0,-999.0,55,-99.99,,,0.00,311,weatherlink.com 1.10,2013-03-25 18:38:00,
2013-03-25 14:53:00,36.7,22.0,29.58,ENE,72,3.0,-999.0,56,-99.99,,,0.00,315,weatherlink.com 1.10,2013-03-25 18:53:00,
2013-03-25 15:08:00,36.6,22.0,29.57,ENE,67,4.0,-999.0,57,-99.99,,,0.00,278,weatherlink.com 1.10,2013-03-25 19:08:00,
2013-03-25 15:23:00,35.9,22.0,29.57,NNE,19,7.0,-999.0,58,-99.99,,,0.00,181,weatherlink.com 1.10,2013-03-25 19:23:00,
2013-03-25 15:38:00,35.6,22.0,29.57,NNE,19,4.0,-999.0,59,-99.99,,,0.00,241,weatherlink.com 1.10,2013-03-25 19:38:00,
2013-03-25 15:53:00,35.5,23.0,29.57,NNE,30,2.0,-999.0,60,-99.99,,,0.00,214,weatherlink.com 1.10,2013-03-25 19:53:00,
2013-03-25 16:08:00,35.5,23.0,29.57,NE,48,5.0,-999.0,60,-99.99,,,0.00,167,weatherlink.com 1.10,2013-03-25 20:08:00,
2013-03-25 16:23:00,35.3,23.0,29.57,NNE,24,6.0,-999.0,61,-99.99,,,0.00,135,weatherlink.com 1.10,2013-03-25 20:23:00,
2013-03-25 16:38:00,35.3,23.0,29.57,WNW,296,3.0,-999.0,61,-99.99,,,0.00,172,weatherlink.com 1.10,2013-03-25 20:38:00,
2013-03-25 16:53:00,35.4,23.0,29.57,NNE,13,2.0,-999.0,61,-99.99,,,0.00,125,weatherlink.com 1.10,2013-03-25 20:53:00,
2013-03-25 17:08:00,35.3,23.0,29.58,ENE,68,5.0,-999.0,61,-99.99,,,0.00,77,weatherlink.com 1.10,2013-03-25 21:08:00,
2013-03-25 17:23:00,34.9,23.0,29.58,ENE,63,11.0,-999.0,61,-99.99,,,0.00,62,weatherlink.com 1.10,2013-03-25 21:23:00,
2013-03-25 17:38:00,34.7,23.0,29.59,NE,51,5.0,-999.0,62,-99.99,,,0.00,47,weatherlink.com 1.10,2013-03-25 21:38:00,
2013-03-25 17:53:00,34.7,23.0,29.59,NE,39,3.0,-999.0,62,-99.99,,,0.00,40,weatherlink.com 1.10,2013-03-25 21:53:00,
2013-03-25 18:08:00,34.6,23.0,29.60,ENE,71,8.0,-999.0,63,-99.99,,,0.00,23,weatherlink.com 1.10,2013-03-25 22:08:00,
2013-03-25 18:23:00,34.4,23.0,29.61,NNE,33,1.0,-999.0,64,-99.99,,,0.00,18,weatherlink.com 1.10,2013-03-25 22:23:00,
2013-03-25 18:38:00,34.3,23.0,29.61,NE,35,3.0,-999.0,64,-99.99,,,0.00,12,weatherlink.com 1.10,2013-03-25 22:38:00,
2013-03-25 18:53:00,34.2,23.0,29.62,NE,53,5.0,-999.0,64,-99.99,,,0.00,5,weatherlink.com 1.10,2013-03-25 22:53:00,
2013-03-25 19:08:00,34.1,23.0,29.62,NE,45,3.0,-999.0,65,-99.99,,,0.00,0,weatherlink.com 1.10,2013-03-25 23:08:00,
2013-03-25 19:23:00,33.9,23.0,29.62,North,360,3.0,-999.0,65,-99.99,,,0.00,0,weatherlink.com 1.10,2013-03-25 23:23:00,
2013-03-25 19:38:00,33.8,23.0,29.62,NNW,334,3.0,-999.0,65,-99.99,,,0.00,0,weatherlink.com 1.10,2013-03-25 23:38:00,
2013-03-25 19:53:00,33.7,23.0,29.63,NNE,30,3.0,-999.0,66,-99.99,,,0.00,0,weatherlink.com 1.10,2013-03-25 23:53:00,
2013-03-25 20:08:00,33.6,23.0,29.63,NNE,19,2.0,-999.0,66,-99.99,,,0.00,0,weatherlink.com 1.10,2013-03-26 00:08:00,
2013-03-25 20:23:00,33.6,23.0,29.64,North,351,2.0,-999.0,66,-99.99,,,0.00,0,weatherlink.com 1.10,2013-03-26 00:23:00,
2013-03-25 20:38:00,33.5,24.0,29.64,NNE,20,6.0,-999.0,67,-99.99,,,0.00,0,weatherlink.com 1.10,2013-03-26 00:38:00,
2013-03-25 20:53:00,33.4,23.0,29.64,North,350,2.0,-999.0,67,-99.99,,,0.00,0,weatherlink.com 1.10,2013-03-26 00:53:00,
2013-03-25 21:08:00,33.3,23.0,29.65,NNE,19,1.0,-999.0,67,-99.99,,,0.00,0,weatherlink.com 1.10,2013-03-26 01:08:00,
2013-03-25 21:23:00,33.2,23.0,29.65,NNW,348,4.0,-999.0,67,-99.99,,,0.00,0,weatherlink.com 1.10,2013-03-26 01:23:00,
2013-03-25 21:38:00,33.2,23.0,29.66,North,349,0.0,-999.0,67,-99.99,,,0.00,0,weatherlink.com 1.10,2013-03-26 01:38:00,
2013-03-25 21:53:00,33.0,23.0,29.66,NNW,344,3.0,-999.0,68,-99.99,,,0.00,0,weatherlink.com 1.10,2013-03-26 01:53:00,
2013-03-25 22:08:00,32.9,23.0,29.66,North,350,2.0,-999.0,68,-99.99,,,0.00,0,weatherlink.com 1.10,2013-03-26 02:08:00,
2013-03-25 22:23:00,32.8,23.0,29.66,North,355,1.0,-999.0,68,-99.99,,,0.00,0,weatherlink.com 1.10,2013-03-26 02:23:00,
2013-03-25 22:38:00,32.8,23.0,29.66,NNW,346,1.0,-999.0,68,-99.99,,,0.00,0,weatherlink.com 1.10,2013-03-26 02:38:00,
2013-03-25 22:53:00,32.7,23.0,29.66,NNE,13,2.0,-999.0,68,-99.99,,,0.00,0,weatherlink.com 1.10,2013-03-26 02:53:00,
2013-03-25 23:10:00,32.6,23.0,29.66,NNE,20,2.0,-999.0,68,-99.99,,,0.00,0,weatherlink.com 1.10,2013-03-26 03:10:00,
2013-03-25 23:23:00,32.5,23.0,29.66,NNW,344,2.0,-999.0,68,-99.99,,,0.00,0,weatherlink.com 1.10,2013-03-26 03:23:00,
2013-03-25 23:38:00,32.5,23.0,29.66,NNE,13,3.0,-999.0,68,-99.99,,,0.00,0,weatherlink.com 1.10,2013-03-26 03:38:00,
2013-03-25 23:53:00,32.6,23.0,29.67,NNE,32,1.0,-999.0,68,-99.99,,,0.00,0,weatherlink.com 1.10,2013-03-26 03:53:00,